EW9411 Weather Reports


Display with metric or nautical units.
time (UTC)temp
F
wind
direction
speed
MPH
gust
MPH
rain 1hr
in
rain 24hr
in
rain mn
in
humidity
%
barometer
mb
20260502211851 60 20 2.0 9.0 0.00 0.00 0.00 41 1008.5
20260502211634 60 351 4.0 9.0 0.00 0.00 0.00 39 1008.6
20260502211359 60 12 1.0 9.0 0.00 0.00 0.00 39 1008.6
20260502211135 60 42 2.0 10.0 0.00 0.00 0.00 39 1008.5
20260502210847 60 10 3.0 10.0 0.00 0.00 0.00 39 1008.5
20260502210636 60 24 5.0 10.0 0.00 0.00 0.00 38 1008.5
20260502210112 60 356 4.0 10.0 0.00 0.00 0.00 40 1008.5
20260502205809 59 37 4.0 10.0 0.00 0.00 0.00 39 1008.5
20260502205610 59 10 5.0 10.0 0.00 0.00 0.00 40 1008.5
20260502205306 59 1 2.0 8.0 0.00 0.00 0.00 41 1008.5
20260502205113 59 356 2.0 8.0 0.00 0.00 0.00 42 1008.5
20260502204811 59 18 3.0 8.0 0.00 0.00 0.00 40 1008.4
20260502204611 59 356 4.0 6.0 0.00 0.00 0.00 39 1008.4
20260502204309 59 1 2.0 6.0 0.00 0.00 0.00 40 1008.4
20260502204110 59 346 2.0 8.0 0.00 0.00 0.00 40 1008.5
20260502203814 59 351 1.0 8.0 0.00 0.00 0.00 40 1008.5
20260502203612 59 351 1.0 8.0 0.00 0.00 0.00 41 1008.5
20260502203329 59 360 2.0 8.0 0.00 0.00 0.00 42 1008.5
20260502203115 59 351 1.0 9.0 0.00 0.00 0.00 42 1008.5
20260502202813 59 8 3.0 9.0 0.00 0.00 0.00 39 1008.5
20260502202612 59 341 2.0 9.0 0.00 0.00 0.00 40 1008.6
20260502202310 59 351 5.0 9.0 0.00 0.00 0.00 40 1008.6
20260502202110 59 1 2.0 5.0 0.00 0.00 0.00 42 1008.6
20260502201815 59 351 2.0 11.0 0.00 0.00 0.00 42 1008.7
20260502201615 59 351 1.0 11.0 0.00 0.00 0.00 41 1008.7
20260502201332 60 351 5.0 11.0 0.00 0.00 0.00 38 1008.7
20260502201118 60 6 5.0 11.0 0.00 0.00 0.00 38 1008.8
20260502200754 61 11 2.0 9.0 0.00 0.00 0.00 41 1008.8
20260502200624 60 255 3.0 14.0 0.00 0.00 0.00 42 1008.9
20260502200320 60 16 4.0 14.0 0.00 0.00 0.00 41 1008.9
20260502200059 60 9 3.0 14.0 0.00 0.00 0.00 42 1008.9
20260502195756 60 13 4.0 14.0 0.00 0.00 0.00 44 1008.8
20260502195602 59 250 2.0 9.0 0.00 0.00 0.00 41 1008.9
20260502195320 59 28 1.0 9.0 0.00 0.00 0.00 43 1009.0
20260502195059 59 30 2.0 9.0 0.00 0.00 0.00 41 1009.0
20260502194803 59 23 4.0 10.0 0.00 0.00 0.00 42 1009.1
20260502194603 60 356 5.0 11.0 0.00 0.00 0.00 40 1009.1
20260502194300 60 356 3.0 11.0 0.00 0.00 0.00 42 1009.1
20260502194100 60 13 6.0 11.0 0.00 0.00 0.00 41 1009.0
20260502193757 60 356 2.0 9.0 0.00 0.00 0.00 43 1009.0
20260502193604 61 1 3.0 9.0 0.00 0.00 0.00 40 1009.1
20260502193302 61 4 1.0 8.0 0.00 0.00 0.00 41 1009.1
20260502193102 61 4 1.0 8.0 0.00 0.00 0.00 43 1009.2
20260502192800 61 5 4.0 8.0 0.00 0.00 0.00 42 1009.2
20260502192601 61 356 2.0 8.0 0.00 0.00 0.00 43 1009.3
20260502192305 61 351 1.0 8.0 0.00 0.00 0.00 43 1009.3
20260502192104 60 17 3.0 10.0 0.00 0.00 0.00 43 1009.4
20260502191802 61 356 3.0 10.0 0.00 0.00 0.00 41 1009.5
20260502191602 61 2 5.0 10.0 0.00 0.00 0.00 39 1009.5
20260502191305 61 356 3.0 9.0 0.00 0.00 0.00 45 1009.6
20260502191104 61 4 2.0 9.0 0.00 0.00 0.00 43 1009.6
20260502190802 61 10 3.0 9.0 0.00 0.00 0.00 41 1009.5
20260502190602 60 6 2.0 10.0 0.00 0.00 0.00 44 1009.5
20260502190300 60 4 2.0 10.0 0.00 0.00 0.00 40 1009.6
20260502190101 60 218 3.0 10.0 0.00 0.00 0.00 40 1009.6
20260502185805 60 250 5.0 15.0 0.00 0.00 0.00 39 1009.6
20260502185605 60 246 2.0 15.0 0.00 0.00 0.00 40 1009.6
20260502185305 60 268 4.0 15.0 0.00 0.00 0.00 42 1009.7
20260502185130 60 201 1.0 7.0 0.00 0.00 0.00 43 1009.7
20260502184806 60 93 3.0 7.0 0.00 0.00 0.00 42 1009.6
20260502184606 60 154 4.0 10.0 0.00 0.00 0.00 40 1009.7
20260502184303 60 233 3.0 11.0 0.00 0.00 0.00 43 1009.7
20260502184104 60 232 2.0 11.0 0.00 0.00 0.00 42 1009.7
20260502183808 59 250 7.0 11.0 0.00 0.00 0.00 41 1009.7
20260502183608 59 233 3.0 11.0 0.00 0.00 0.00 42 1009.7
20260502183306 60 242 4.0 11.0 0.00 0.00 0.00 42 1009.8
20260502183106 60 266 5.0 11.0 0.00 0.00 0.00 41 1009.9
20260502182611 60 289 2.0 9.0 0.00 0.00 0.00 44 1009.9
20260502182326 60 289 2.0 9.0 0.00 0.00 0.00 43 1009.9
20260502182116 60 257 3.0 9.0 0.00 0.00 0.00 43 1009.9
20260502181809 60 272 3.0 10.0 0.00 0.00 0.00 44 1009.9
20260502181554 59 351 3.0 10.0 0.00 0.00 0.00 45 1010.0
20260502181308 59 346 4.0 10.0 0.00 0.00 0.00 43 1009.9
20260502181119 59 356 2.0 5.0 0.00 0.00 0.00 44 1009.9
20260502180831 59 360 2.0 5.0 0.00 0.00 0.00 45 1009.9
20260502180553 59 272 1.0 5.0 0.00 0.00 0.00 48 1009.9
20260502180254 58 338 2.0 10.0 0.00 0.00 0.00 46 1010.0
20260502180119 58 246 1.0 10.0 0.00 0.00 0.00 45 1009.9
20260502170322 58 7 4.0 9.0 0.00 0.00 0.00 49 1010.4
20260502170108 58 12 3.0 9.0 0.00 0.00 0.00 47 1010.5
20260502164303 58 15 2.0 6.0 0.00 0.00 0.00 56 1010.6
20260502164111 57 260 2.0 4.0 0.00 0.00 0.00 54 1010.6
20260502163826 57 254 1.0 10.0 0.00 0.00 0.00 58 1010.7
20260502163605 57 306 2.0 11.0 0.00 0.00 0.00 56 1010.7
20260502163301 57 9 2.0 11.0 0.00 0.00 0.00 57 1010.7
20260502163108 57 6 5.0 11.0 0.00 0.00 0.00 55 1010.8
20260502162805 57 21 2.0 8.0 0.00 0.00 0.00 58 1010.7
20260502162605 57 346 2.0 6.0 0.00 0.00 0.00 55 1010.7
20260502162304 56 351 1.0 9.0 0.00 0.00 0.00 57 1010.7
20260502162104 56 351 3.0 9.0 0.00 0.00 0.00 55 1010.7
20260502161807 56 7 5.0 9.0 0.00 0.00 0.00 55 1010.8
20260502161607 56 6 3.0 9.0 0.00 0.00 0.00 57 1010.8
20260502161305 56 21 3.0 8.0 0.00 0.00 0.00 58 1010.8
20260502161105 56 360 4.0 8.0 0.00 0.00 0.00 56 1010.8
20260502160809 56 356 3.0 8.0 0.00 0.00 0.00 57 1010.8
20260502160610 56 193 1.0 11.0 0.00 0.00 0.00 59 1010.7
20260502160307 56 341 2.0 11.0 0.00 0.00 0.00 57 1010.8
20260502160108 56 5 4.0 11.0 0.00 0.00 0.00 56 1010.8
20260502152113 55 15 3.0 11.0 0.00 0.00 0.00 63 1011.1
20260502151827 55 4 5.0 11.0 0.00 0.00 0.00 63 1011.1
20260502151611 55 13 4.0 10.0 0.00 0.00 0.00 63 1011.0
20260502151311 55 27 2.0 8.0 0.00 0.00 0.00 66 1011.1
20260502151055 54 335 2.0 9.0 0.00 0.00 0.00 66 1011.0
20260502150806 54 351 4.0 9.0 0.00 0.00 0.00 65 1011.1
20260502150611 54 351 4.0 10.0 0.00 0.00 0.00 64 1011.2
20260502150304 53 351 4.0 10.0 0.00 0.00 0.00 65 1011.2
20260502150116 53 360 5.0 10.0 0.00 0.00 0.00 64 1011.2
20260502140106 53 323 5.0 12.0 0.00 0.00 0.00 71 1011.2
20260502130609 52 49 3.0 11.0 0.00 0.00 0.00 78 1011.4
20260502130306 52 4 3.0 9.0 0.00 0.00 0.00 79 1011.5
20260502130107 51 15 2.0 10.0 0.00 0.00 0.00 79 1011.4
20260502123805 51 351 3.0 11.0 0.00 0.00 0.00 80 1011.2
20260502123632 51 346 4.0 11.0 0.00 0.00 0.00 81 1011.2
20260502123309 51 333 4.0 11.0 0.00 0.00 0.00 81 1011.1
20260502123109 51 17 2.0 5.0 0.00 0.00 0.00 82 1011.1
20260502122815 51 277 1.0 5.0 0.00 0.00 0.00 82 1011.0
20260502122614 51 23 2.0 5.0 0.00 0.00 0.00 82 1010.9
20260502122333 51 316 2.0 9.0 0.00 0.00 0.00 83 1010.9
20260502122112 51 21 2.0 9.0 0.00 0.00 0.00 83 1010.9
20260502121815 51 360 2.0 9.0 0.00 0.00 0.00 83 1010.9
20260502121615 51 356 4.0 9.0 0.00 0.00 0.00 83 1010.9
20260502121253 51 13 4.0 9.0 0.00 0.00 0.00 83 1010.8
20260502121054 51 11 4.0 8.0 0.00 0.00 0.00 84 1010.8
20260502120818 51 5 0.0 8.0 0.00 0.00 0.00 85 1010.7
20260502120618 51 5 1.0 8.0 0.00 0.00 0.00 84 1010.7
20260502120256 51 356 2.0 8.0 0.00 0.00 0.00 84 1010.7
20260502115810 51 8 3.0 8.0 0.00 0.00 0.00 84 1010.8
20260502115617 51 19 2.0 8.0 0.00 0.00 0.00 85 1010.8
20260502115314 51 356 2.0 8.0 0.00 0.00 0.00 85 1010.8
20260502115055 51 14 3.0 8.0 0.00 0.00 0.00 85 1010.9
20260502114814 51 297 3.0 7.0 0.00 0.00 0.00 86 1010.8
20260502114620 50 291 1.0 7.0 0.00 0.00 0.00 86 1010.8
20260502114318 50 250 2.0 4.0 0.00 0.00 0.00 86 1010.8
20260502114105 50 249 2.0 4.0 0.00 0.00 0.00 86 1010.8
20260502113801 50 249 1.0 4.0 0.00 0.00 0.00 87 1010.9
20260502113602 50 249 1.0 4.0 0.00 0.00 0.00 88 1011.0
20260502113259 50 249 2.0 4.0 0.00 0.00 0.00 88 1011.0
20260502113100 50 249 2.0 4.0 0.00 0.00 0.00 89 1011.0
20260502112758 49 249 1.0 4.0 0.00 0.00 0.00 90 1010.9
20260502112604 49 249 2.0 4.0 0.00 0.00 0.00 90 1010.9
20260502112305 49 249 0.0 7.0 0.00 0.00 0.00 90 1010.9
20260502112102 49 249 2.0 7.0 0.00 0.00 0.00 91 1011.0
20260502111759 49 249 2.0 7.0 0.00 0.00 0.00 91 1011.0
20260502111600 49 249 3.0 7.0 0.00 0.00 0.00 92 1011.0
20260502111303 49 328 1.0 3.0 0.00 0.00 0.00 92 1011.0
20260502111103 49 328 1.0 2.0 0.00 0.00 0.00 92 1011.0
20260502110801 48 328 0.0 3.0 0.00 0.00 0.00 92 1010.8
20260502110628 48 328 0.0 3.0 0.00 0.00 0.00 92 1010.8
20260502110305 48 328 1.0 3.0 0.00 0.00 0.00 92 1010.7
20260502110133 48 328 0.0 2.0 0.00 0.00 0.00 92 1010.7
20260502105805 48 328 0.0 1.0 0.00 0.00 0.00 92 1010.6
20260502105610 48 328 0.0 1.0 0.00 0.00 0.00 92 1010.6
20260502105306 48 328 0.0 2.0 0.00 0.00 0.00 92 1010.7
20260502105108 48 328 0.0 2.0 0.00 0.00 0.00 92 1010.6
20260502104829 48 328 1.0 2.0 0.00 0.00 0.00 92 1010.5
20260502104633 48 328 1.0 2.0 0.00 0.00 0.00 92 1010.5
20260502104312 47 328 0.0 1.0 0.00 0.00 0.00 92 1010.4
20260502104116 47 328 0.0 0.0 0.00 0.00 0.00 92 1010.3
20260502103809 47 328 0.0 1.0 0.00 0.00 0.00 92 1010.3
20260502103553 47 328 0.0 2.0 0.00 0.00 0.00 92 1010.3
20260502103307 47 328 0.0 2.0 0.00 0.00 0.00 91 1010.3
20260502103118 47 328 1.0 2.0 0.00 0.00 0.00 91 1010.3
20260502102810 47 328 1.0 2.0 0.00 0.00 0.00 90 1010.3
20260502102554 47 328 0.0 1.0 0.00 0.00 0.00 90 1010.2
20260502102329 47 328 0.0 1.0 0.00 0.00 0.00 90 1010.2
20260502102118 47 328 0.0 1.0 0.00 0.00 0.00 90 1010.2
20260502101832 47 328 0.0 2.0 0.00 0.00 0.00 90 1010.3
20260502101555 47 328 0.0 2.0 0.00 0.00 0.00 90 1010.2
20260502101315 47 328 1.0 2.0 0.00 0.00 0.00 90 1010.2
20260502101100 48 328 1.0 2.0 0.00 0.00 0.00 89 1010.2
20260502100752 48 328 1.0 1.0 0.00 0.00 0.00 89 1010.2
20260502100557 48 328 1.0 1.0 0.00 0.00 0.00 89 1010.2
20260502100317 48 328 0.0 1.0 0.00 0.00 0.00 89 1010.2
20260502091256 50 326 1.0 3.0 0.00 0.00 0.00 84 1010.1
20260502091103 50 324 1.0 2.0 0.00 0.00 0.00 84 1010.2
20260502090822 50 324 1.0 2.0 0.00 0.00 0.00 83 1010.2
20260502090600 50 324 1.0 2.0 0.00 0.00 0.00 82 1010.3
20260502090305 50 324 0.0 3.0 0.00 0.00 0.00 82 1010.4
20260502090105 50 324 0.0 3.0 0.00 0.00 0.00 82 1010.4
20260502080107 51 356 1.0 3.0 0.00 0.00 0.00 84 1010.2
20260502071255 51 356 2.0 5.0 0.00 0.00 0.00 84 1009.9
20260502071103 51 356 2.0 5.0 0.00 0.00 0.00 84 1009.9
20260502070759 51 356 2.0 5.0 0.00 0.00 0.00 83 1009.9
20260502070600 51 356 2.0 4.0 0.00 0.00 0.00 83 1009.9
20260502070258 52 356 3.0 8.0 0.00 0.00 0.00 82 1009.9
20260502070059 52 356 2.0 8.0 0.00 0.00 0.00 82 1010.0
20260502065755 52 356 2.0 8.0 0.00 0.00 0.00 82 1010.1
20260502065602 51 356 4.0 8.0 0.00 0.00 0.00 82 1010.1
20260502065316 51 295 1.0 4.0 0.00 0.00 0.00 82 1010.3
20260502065100 51 295 2.0 7.0 0.00 0.00 0.00 82 1010.2
20260502064800 51 234 0.0 8.0 0.00 0.00 0.00 82 1010.4
20260502064605 51 234 1.0 8.0 0.00 0.00 0.00 83 1010.3
20260502064258 51 234 4.0 8.0 0.00 0.00 0.00 83 1010.5
20260502064102 51 8 3.0 6.0 0.00 0.00 0.00 83 1010.3
20260502063756 51 341 0.0 0.0 0.00 0.00 0.00 82 1010.4
20260502063606 51 342 0.0 0.0 0.00 0.00 0.00 82 1010.5
20260502063259 51 341 0.0 0.0 0.00 0.00 0.00 82 1010.3
20260502063102 51 341 0.0 0.0 0.00 0.00 0.00 82 1010.3
20260502062756 51 341 0.0 0.0 0.00 0.00 0.00 82 1010.3
20260502062600 51 342 0.0 0.0 0.00 0.00 0.00 82 1010.2
20260502062253 51 342 0.0 0.0 0.00 0.00 0.00 81 1010.2
20260502062124 51 341 0.0 0.0 0.00 0.00 0.00 81 1010.1
20260502061824 51 341 0.0 0.0 0.00 0.00 0.00 81 1010.1
20260502061301 51 342 0.0 0.0 0.00 0.00 0.00 81 1010.2
20260502061105 51 342 0.0 0.0 0.00 0.00 0.00 81 1010.2
20260502060805 52 342 0.0 0.0 0.00 0.00 0.00 81 1010.3
20260502060553 52 342 0.0 0.0 0.00 0.00 0.00 81 1010.3
20260502060325 52 342 0.0 0.0 0.00 0.00 0.00 80 1010.3
20260502060115 52 341 0.0 0.0 0.00 0.00 0.00 80 1010.2
20260502055829 52 342 0.0 0.0 0.00 0.00 0.00 80 1010.3
20260502055612 52 342 0.0 0.0 0.00 0.00 0.00 80 1010.3
20260502055313 52 342 0.0 0.0 0.00 0.00 0.00 80 1010.3
20260502055115 52 342 0.0 0.0 0.00 0.00 0.00 80 1010.2
20260502054805 52 341 0.0 0.0 0.00 0.00 0.00 79 1010.3
20260502054610 52 341 0.0 0.0 0.00 0.00 0.00 79 1010.2
20260502054304 52 341 0.0 0.0 0.00 0.00 0.00 79 1010.2
20260502054115 52 342 0.0 0.0 0.00 0.00 0.00 79 1010.2
20260502053808 52 341 0.0 0.0 0.00 0.00 0.00 79 1010.1
20260502053629 52 341 0.0 0.0 0.00 0.00 0.00 79 1010.1
20260502053305 52 341 0.0 0.0 0.00 0.00 0.00 79 1010.1
20260502053133 52 341 0.0 0.0 0.00 0.00 0.00 78 1010.1
20260502052807 52 341 0.0 0.0 0.00 0.00 0.00 78 1010.2
20260502052607 52 341 0.0 0.0 0.00 0.00 0.00 78 1010.2
20260502052331 52 341 0.0 0.0 0.00 0.00 0.00 77 1010.3
20260502052111 52 341 0.0 0.0 0.00 0.00 0.00 77 1010.4
20260502051809 52 341 0.0 0.0 0.00 0.00 0.00 77 1010.5
20260502051616 52 341 0.0 0.0 0.00 0.00 0.00 77 1010.4
20260502051253 52 341 0.0 0.0 0.00 0.00 0.00 77 1010.4
20260502051114 52 341 0.0 0.0 0.00 0.00 0.00 77 1010.3
20260502050817 52 341 0.0 0.0 0.00 0.00 0.00 76 1010.3
20260502050619 52 341 0.0 0.0 0.00 0.00 0.00 76 1010.3
20260502050256 53 341 0.0 0.0 0.00 0.00 0.00 76 1010.2
20260502050122 52 341 0.0 0.0 0.00 0.00 0.00 76 1010.2
20260502045816 52 341 0.0 0.0 0.00 0.00 0.00 75 1010.4
20260502045556 52 341 0.0 0.0 0.00 0.00 0.00 75 1010.4
20260502045253 52 342 0.0 0.0 0.00 0.00 0.00 74 1010.4
20260502045053 53 342 0.0 0.0 0.00 0.00 0.00 74 1010.4
20260502044757 53 342 0.0 0.0 0.00 0.00 0.00 75 1010.5
20260502044557 53 342 0.0 0.0 0.00 0.00 0.00 74 1010.4
20260502044254 53 342 0.0 0.0 0.00 0.00 0.00 74 1010.4
20260502044054 53 342 0.0 0.0 0.00 0.00 0.00 74 1010.4
20260502043818 53 342 0.0 0.0 0.00 0.00 0.00 74 1010.4
20260502043559 53 342 0.0 0.0 0.00 0.00 0.00 74 1010.4
20260502043257 53 341 0.0 0.0 0.00 0.00 0.00 73 1010.3
20260502043117 53 342 0.0 0.0 0.00 0.00 0.00 73 1010.4
20260502042819 53 342 0.0 0.0 0.00 0.00 0.00 73 1010.4
20260502042620 53 342 0.0 0.0 0.00 0.00 0.00 73 1010.4
20260502042305 53 342 0.0 0.0 0.00 0.00 0.00 72 1010.2
20260502042101 53 342 0.0 0.0 0.00 0.00 0.00 72 1010.2
20260502041759 54 342 0.0 0.0 0.00 0.00 0.00 71 1010.3
20260502041559 54 342 0.0 0.0 0.00 0.00 0.00 71 1010.3
20260502041303 54 342 0.0 0.0 0.00 0.00 0.00 71 1010.3
20260502041104 54 342 0.0 0.0 0.00 0.00 0.00 71 1010.4
20260502040819 54 342 0.0 0.0 0.00 0.00 0.00 70 1010.4
20260502040608 54 342 0.0 0.0 0.00 0.00 0.00 70 1010.3
20260502040302 54 342 0.0 0.0 0.00 0.00 0.00 70 1010.3
20260502040106 54 342 0.0 0.0 0.00 0.00 0.00 69 1010.2
20260502035759 54 342 0.0 0.0 0.00 0.00 0.00 69 1010.2
20260502035629 54 342 0.0 0.0 0.00 0.00 0.00 69 1010.2
20260502035306 54 342 0.0 0.0 0.00 0.00 0.00 69 1010.3
20260502035128 54 341 0.0 0.0 0.00 0.00 0.00 68 1010.2
20260502034827 54 341 0.0 0.0 0.00 0.00 0.00 68 1010.3
20260502034611 54 341 0.0 0.0 0.00 0.00 0.00 68 1010.3
20260502034305 54 341 0.0 0.0 0.00 0.00 0.00 68 1010.3
20260502034115 54 341 0.0 0.0 0.00 0.00 0.00 68 1010.3
20260502033829 54 341 0.0 0.0 0.00 0.00 0.00 67 1010.2
20260502033613 55 341 0.0 0.0 0.00 0.00 0.00 68 1010.2
20260502033334 54 342 0.0 0.0 0.00 0.00 0.00 67 1010.3
20260502033057 54 342 0.0 0.0 0.00 0.00 0.00 67 1010.3
20260502032811 54 342 0.0 0.0 0.00 0.00 0.00 67 1010.3
20260502032555 54 341 0.0 0.0 0.00 0.00 0.00 67 1010.3
20260502032312 54 342 0.0 0.0 0.00 0.00 0.00 67 1010.2
20260502032133 54 342 0.0 0.0 0.00 0.00 0.00 67 1010.2
20260502031810 55 342 0.0 0.0 0.00 0.00 0.00 67 1010.2
20260502031617 55 342 0.0 0.0 0.00 0.00 0.00 67 1010.2
20260502031255 55 342 0.0 0.0 0.00 0.00 0.00 67 1010.2
20260502031055 55 342 0.0 0.0 0.00 0.00 0.00 67 1010.1
20260502030753 55 341 0.0 1.0 0.00 0.00 0.00 66 1010.2
20260502030620 55 342 0.0 1.0 0.00 0.00 0.00 66 1010.2
20260502030257 55 341 0.0 1.0 0.00 0.00 0.00 65 1010.2
20260502030058 55 341 0.0 1.0 0.00 0.00 0.00 64 1010.2
20260502025816 55 341 0.0 1.0 0.00 0.00 0.00 64 1010.3
20260502025601 56 341 1.0 1.0 0.00 0.00 0.00 64 1010.4
20260502025258 56 342 0.0 0.0 0.00 0.00 0.00 63 1010.4
20260502025058 56 342 0.0 0.0 0.00 0.00 0.00 62 1010.5
20260502024756 56 342 0.0 0.0 0.00 0.00 0.00 62 1010.5
20260502024624 56 342 0.0 1.0 0.00 0.00 0.00 62 1010.5
20260502024300 56 342 0.0 2.0 0.00 0.00 0.00 61 1010.5
20260502024101 56 342 0.0 2.0 0.00 0.00 0.00 61 1010.5
20260502023759 56 342 0.0 2.0 0.00 0.00 0.00 61 1010.6
20260502023605 56 341 1.0 2.0 0.00 0.00 0.00 61 1010.5
20260502023303 56 341 1.0 4.0 0.00 0.00 0.00 60 1010.4
20260502023103 57 341 1.0 4.0 0.00 0.00 0.00 60 1010.4
20260502022801 57 341 2.0 4.0 0.00 0.00 0.00 60 1010.5
20260502022602 57 346 1.0 4.0 0.00 0.00 0.00 60 1010.5
20260502022306 57 346 0.0 3.0 0.00 0.00 0.00 60 1010.5
20260502022106 57 346 1.0 3.0 0.00 0.00 0.00 59 1010.4
20260502021824 57 346 2.0 4.0 0.00 0.00 0.00 59 1010.5
20260502021603 57 346 1.0 4.0 0.00 0.00 0.00 59 1010.5
20260502021307 57 346 2.0 4.0 0.00 0.00 0.00 59 1010.5
20260502021107 57 346 1.0 3.0 0.00 0.00 0.00 59 1010.5
20260502020805 57 346 1.0 4.0 0.00 0.00 0.00 58 1010.6
20260502020606 57 346 2.0 5.0 0.00 0.00 0.00 58 1010.6
20260502020310 57 346 2.0 5.0 0.00 0.00 0.00 58 1010.5
20260502020110 57 346 3.0 5.0 0.00 0.00 0.00 58 1010.4
20260502015808 57 346 3.0 5.0 0.00 0.00 0.00 58 1010.3
20260502015609 57 281 2.0 3.0 0.00 0.00 0.00 57 1010.3
20260502015306 58 267 0.0 2.0 0.00 0.00 0.00 57 1010.4
20260502015133 58 267 0.0 3.0 0.00 0.00 0.00 57 1010.4
20260502014807 58 267 0.0 3.0 0.00 0.00 0.00 57 1010.4
20260502014608 58 267 0.0 3.0 0.00 0.00 0.00 57 1010.4
20260502014311 58 267 2.0 3.0 0.00 0.00 0.00 56 1010.3
20260502014112 58 267 1.0 3.0 0.00 0.00 0.00 56 1010.3
20260502013831 58 266 1.0 3.0 0.00 0.00 0.00 56 1010.3
20260502013610 58 266 2.0 3.0 0.00 0.00 0.00 56 1010.3
20260502013314 58 267 1.0 3.0 0.00 0.00 0.00 55 1010.2
20260502013056 58 267 2.0 3.0 0.00 0.00 0.00 55 1010.2
20260502012753 58 267 2.0 3.0 0.00 0.00 0.00 55 1010.1
20260502012614 58 267 1.0 3.0 0.00 0.00 0.00 54 1010.1
20260502012259 58 267 1.0 3.0 0.00 0.00 0.00 54 1010.1
20260502012058 58 267 1.0 3.0 0.00 0.00 0.00 54 1010.1
20260502011756 58 267 2.0 3.0 0.00 0.00 0.00 53 1010.0
20260502011556 58 267 2.0 3.0 0.00 0.00 0.00 54 1009.9
20260502011253 58 266 0.0 0.0 0.00 0.00 0.00 54 1009.9
20260502011120 59 266 0.0 0.0 0.00 0.00 0.00 54 1009.8
20260502010757 59 266 0.0 1.0 0.00 0.00 0.00 53 1009.8
20260502010558 59 266 0.0 1.0 0.00 0.00 0.00 53 1009.8
20260502010302 59 266 0.0 1.0 0.00 0.00 0.00 53 1009.7
20260502005800 59 266 0.0 1.0 0.00 0.00 0.00 54 1009.7
20260502005627 59 266 0.0 0.0 0.00 0.00 0.00 53 1009.7
20260502005321 59 266 0.0 1.0 0.00 0.00 0.00 53 1009.7
20260502005105 59 266 0.0 1.0 0.00 0.00 0.00 53 1009.8
20260502004806 60 266 0.0 1.0 0.00 0.00 0.00 52 1009.7
20260502004609 60 266 0.0 1.0 0.00 0.00 0.00 52 1009.7
20260502004303 60 266 0.0 0.0 0.00 0.00 0.00 52 1009.7
20260502004107 60 266 0.0 0.0 0.00 0.00 0.00 51 1009.7
20260502003800 60 266 0.0 1.0 0.00 0.00 0.00 51 1009.7
20260502003610 60 266 0.0 1.0 0.00 0.00 0.00 50 1009.7
20260502003325 60 266 0.0 1.0 0.00 0.00 0.00 49 1009.7
20260502003109 60 266 0.0 1.0 0.00 0.00 0.00 49 1009.7
20260502002803 60 266 0.0 2.0 0.00 0.00 0.00 49 1009.6
20260502002613 60 266 0.0 2.0 0.00 0.00 0.00 49 1009.6
20260502002307 60 266 0.0 2.0 0.00 0.00 0.00 49 1009.5
20260502002133 60 266 1.0 2.0 0.00 0.00 0.00 49 1009.5
20260502001833 61 266 0.0 4.0 0.00 0.00 0.00 49 1009.5
20260502001556 61 266 1.0 4.0 0.00 0.00 0.00 48 1009.5
20260502001337 61 266 0.0 4.0 0.00 0.00 0.00 48 1009.5
20260502001116 61 266 1.0 4.0 0.00 0.00 0.00 48 1009.4
20260502000753 61 226 1.0 8.0 0.00 0.00 0.00 48 1009.4
20260502000554 61 225 0.0 8.0 0.00 0.00 0.00 48 1009.4
20260502000258 61 225 1.0 8.0 0.00 0.00 0.00 48 1009.4
20260502000058 61 225 4.0 8.0 0.00 0.00 0.00 47 1009.4
20260501235818 61 232 4.0 9.0 0.00 0.00 0.00 47 1009.3
20260501235603 61 214 3.0 9.0 0.00 0.00 0.00 47 1009.3
20260501235300 61 203 5.0 9.0 0.00 0.00 0.00 47 1009.3
20260501235122 61 213 4.0 8.0 0.00 0.00 0.00 48 1009.2
20260501234826 62 225 2.0 7.0 0.00 0.00 0.00 47 1009.1
20260501234605 61 225 3.0 7.0 0.00 0.00 0.00 47 1009.2
20260501234330 61 232 2.0 5.0 0.00 0.00 0.00 46 1009.1
20260501234110 62 232 1.0 5.0 0.00 0.00 0.00 47 1009.1
20260501233807 62 210 3.0 5.0 0.00 0.00 0.00 46 1009.2
20260501233607 62 229 2.0 5.0 0.00 0.00 0.00 46 1009.1
20260501233305 62 229 3.0 5.0 0.00 0.00 0.00 46 1009.1
20260501233112 62 235 2.0 5.0 0.00 0.00 0.00 47 1009.0
20260501232810 62 236 2.0 4.0 0.00 0.00 0.00 46 1008.9
20260501232610 62 236 2.0 4.0 0.00 0.00 0.00 47 1008.9
20260501232308 62 223 2.0 5.0 0.00 0.00 0.00 46 1008.9
20260501232108 62 223 1.0 5.0 0.00 0.00 0.00 46 1008.9
20260501231811 62 223 3.0 5.0 0.00 0.00 0.00 45 1008.8
20260501231612 62 223 2.0 9.0 0.00 0.00 0.00 46 1008.8
20260501231309 62 240 3.0 9.0 0.00 0.00 0.00 45 1008.8
20260501231136 62 240 3.0 9.0 0.00 0.00 0.00 46 1008.8
20260501230753 62 212 3.0 7.0 0.00 0.00 0.00 45 1008.7
20260501230553 62 200 4.0 9.0 0.00 0.00 0.00 45 1008.7
20260501230311 62 223 2.0 9.0 0.00 0.00 0.00 46 1008.7
20260501230112 62 222 4.0 9.0 0.00 0.00 0.00 46 1008.7
20260501225812 62 252 5.0 9.0 0.00 0.00 0.00 45 1008.6
20260501225553 62 222 2.0 6.0 0.00 0.00 0.00 47 1008.6
20260501225307 62 223 4.0 9.0 0.00 0.00 0.00 46 1008.6
20260501225108 62 218 3.0 9.0 0.00 0.00 0.00 47 1008.6
20260501224815 62 208 4.0 9.0 0.00 0.00 0.00 47 1008.5
20260501224614 63 200 5.0 9.0 0.00 0.00 0.00 46 1008.5
20260501224338 62 234 4.0 8.0 0.00 0.00 0.00 47 1008.5
20260501224059 62 215 5.0 8.0 0.00 0.00 0.00 46 1008.4
20260501223754 63 239 4.0 8.0 0.00 0.00 0.00 47 1008.4
20260501223555 63 211 4.0 9.0 0.00 0.00 0.00 46 1008.4
20260501223253 63 211 5.0 9.0 0.00 0.00 0.00 45 1008.5
20260501223053 63 204 4.0 9.0 0.00 0.00 0.00 45 1008.4
20260501222816 63 236 6.0 10.0 0.00 0.00 0.00 45 1008.4
20260501222556 63 244 3.0 10.0 0.00 0.00 0.00 45 1008.5
20260501222253 63 239 5.0 10.0 0.00 0.00 0.00 44 1008.5
20260501222054 63 202 6.0 12.0 0.00 0.00 0.00 44 1008.5
20260501221818 63 210 3.0 12.0 0.00 0.00 0.00 45 1008.5
20260501221618 63 195 4.0 12.0 0.00 0.00 0.00 45 1008.6
20260501221256 63 216 7.0 12.0 0.00 0.00 0.00 45 1008.6
20260501221056 63 209 7.0 11.0 0.00 0.00 0.00 45 1008.5
20260501220754 63 227 5.0 11.0 0.00 0.00 0.00 45 1008.6
20260501220555 63 243 6.0 11.0 0.00 0.00 0.00 45 1008.6
20260501220257 63 252 6.0 11.0 0.00 0.00 0.00 45 1008.5
20260501220058 63 240 7.0 11.0 0.00 0.00 0.00 45 1008.6
20260501215756 63 223 5.0 11.0 0.00 0.00 0.00 45 1008.5
20260501215556 63 222 3.0 10.0 0.00 0.00 0.00 46 1008.4
20260501215253 63 180 6.0 11.0 0.00 0.00 0.00 46 1008.4
20260501215119 63 220 4.0 10.0 0.00 0.00 0.00 45 1008.4
20260501214755 63 191 5.0 9.0 0.00 0.00 0.00 46 1008.5
20260501214556 63 225 5.0 10.0 0.00 0.00 0.00 46 1008.5
20260501214301 64 231 4.0 9.0 0.00 0.00 0.00 46 1008.6
20260501214059 64 242 6.0 16.0 0.00 0.00 0.00 44 1008.7
20260501213757 64 228 4.0 16.0 0.00 0.00 0.00 46 1008.7
20260501213627 64 231 5.0 16.0 0.00 0.00 0.00 44 1008.7
20260501213257 65 208 6.0 15.0 0.00 0.00 0.00 44 1008.6
20260501213102 65 192 4.0 11.0 0.00 0.00 0.00 44 1008.5
20260501212817 65 200 4.0 11.0 0.00 0.00 0.00 44 1008.4
20260501212606 65 210 6.0 11.0 0.00 0.00 0.00 43 1008.4
20260501212300 65 214 3.0 10.0 0.00 0.00 0.00 46 1008.3
20260501212104 65 185 1.0 10.0 0.00 0.00 0.00 46 1008.4